Weather History for KRDU - October, 2013

Change the Weather History Date:

Sunday, October 6, 2013

  Actual Average Record
Temperature  
Mean Temperature 74 °F 64 °F  
Max Temperature 85 °F 76 °F 98 °F (1954)
Min Temperature 63 °F 53 °F 35 °F (1965)
Degree Days  
Heating Degree Days 0 3  
Month to date heating degree days 0 16  
Since 1 July heating degree days 11 37  
Cooling Degree Days 9 3  
Month to date cooling degree days 44 19  
Year to date cooling degree days 1539 1687  
Growing Degree Days 24 (Base 50)    
Moisture  
Dew Point 67 °F    
Average Humidity 78    
Maximum Humidity 100    
Minimum Humidity 55    
Precipitation  
Precipitation 0.00 in 0.11 in 1.84 in (1899)
Month to date precipitation 0.00 0.67  
Year to date precipitation 40.38 34.57  
Sea Level Pressure  
Sea Level Pressure 30.02 in    
Wind  
Wind Speed 7 mph (South)    
Max Wind Speed 14 mph    
Max Gust Speed 20 mph    
Visibility 8 miles    
Events Fog    
T = Trace of Precipitation, MM = Missing Value Source: NWS Daily Summary

Daily Weather History Graph

Daily Weather History Graph

Search for Another Location

Airport or City:

Trip Planner

Search our weather history database for the weather conditions in past years. The results will help you decide how hot, cold, wet, or windy it might be!

Date:

Astronomy

Oct. 06, 2013 Rise Set
Actual Time 7:14 AM EDT 6:51 PM EDT
Civil Twilight 6:48 AM EDT 7:16 PM EDT
Nautical Twilight 6:19 AM EDT 7:46 PM EDT
Astronomical Twilight 5:49 AM EDT 8:16 PM EDT
Moon 8:52 AM EDT (10/6) 7:54 PM EDT (10/6)
Length of Visible Light 12h 28m
Length of Day
11h 36m
Waxing Crescent, 3% of the Moon is Illuminated
Oct 6
Waxing Crescent
Oct 11
First Quarter
Oct 18
Full
Oct 26
Last Quarter
Nov 3
New

Hourly Weather History & Observations

Time (EDT) Temp. Heat Index Dew Point Humidity Pressure Visibility Wind Dir Wind Speed Gust Speed Precip Events Conditions
12:51 AM 70.0 °F - 63.0 °F 78% 30.06 in 10.0 mi SW 3.5 mph - N/A   Partly Cloudy
1:51 AM 70.0 °F - 64.0 °F 81% 30.06 in 10.0 mi SSW 5.8 mph - N/A   Partly Cloudy
2:51 AM 68.0 °F - 64.0 °F 87% 30.04 in 10.0 mi SSW 3.5 mph - N/A   Partly Cloudy
3:51 AM 66.9 °F - 64.0 °F 90% 30.04 in 10.0 mi Calm Calm - N/A   Clear
4:51 AM 66.9 °F - 64.0 °F 90% 30.04 in 9.0 mi Calm Calm - N/A   Partly Cloudy
5:51 AM 64.0 °F - 63.0 °F 96% 30.04 in 9.0 mi Calm Calm - N/A   Partly Cloudy
6:32 AM 66.2 °F - 64.4 °F 94% 30.07 in 2.5 mi Calm Calm - N/A Fog Patches of Fog
6:40 AM 64.4 °F - 64.4 °F 100% 30.07 in 0.2 mi South 4.6 mph - N/A Fog Patches of Fog
6:51 AM 64.9 °F - 64.9 °F 100% 30.05 in 0.2 mi South 3.5 mph - N/A Fog Fog
7:24 AM 66.2 °F - 66.2 °F 100% 30.06 in 0.1 mi South 3.5 mph - N/A Fog Fog
7:51 AM 66.0 °F - 66.0 °F 100% 30.06 in 0.1 mi SSE 3.5 mph - N/A Fog Fog
8:51 AM 66.9 °F - 66.0 °F 97% 30.07 in 0.2 mi South 3.5 mph - N/A Fog Fog
9:49 AM 69.8 °F - 66.2 °F 88% 30.09 in 2.0 mi SW 4.6 mph - N/A   Mostly Cloudy
9:51 AM 69.1 °F - 66.9 °F 93% 30.08 in 6.0 mi SW 3.5 mph - N/A   Mostly Cloudy
10:04 AM 69.8 °F - 68.0 °F 94% 30.09 in 10.0 mi SSW 3.5 mph - N/A   Scattered Clouds
10:51 AM 75.9 °F - 68.0 °F 76% 30.07 in 10.0 mi SW 9.2 mph - N/A   Mostly Cloudy
11:32 AM 77.0 °F - 69.8 °F 78% 30.08 in 10.0 mi SSW 6.9 mph - N/A   Mostly Cloudy
11:51 AM 78.1 °F - 68.0 °F 71% 30.06 in 10.0 mi South 11.5 mph - N/A   Mostly Cloudy
12:51 PM 79.0 °F - 69.1 °F 72% 30.03 in 10.0 mi South 11.5 mph - N/A   Mostly Cloudy
1:51 PM 81.0 °F 83.8 °F 68.0 °F 65% 30.01 in 10.0 mi Variable 6.9 mph - N/A   Mostly Cloudy
2:30 PM 84.2 °F 86.6 °F 66.2 °F 55% 30.01 in 10.0 mi SSW 10.4 mph - N/A   Mostly Cloudy
2:51 PM 84.0 °F 86.5 °F 66.9 °F 56% 29.99 in 10.0 mi South 9.2 mph - N/A   Mostly Cloudy
3:51 PM 82.0 °F 84.1 °F 66.0 °F 58% 29.96 in 10.0 mi South 5.8 mph - N/A   Mostly Cloudy
4:51 PM 82.0 °F 84.5 °F 66.9 °F 60% 29.95 in 10.0 mi SSE 10.4 mph - N/A   Mostly Cloudy
5:51 PM 81.0 °F 84.1 °F 69.1 °F 67% 29.95 in 10.0 mi SE 9.2 mph 19.6 mph N/A   Mostly Cloudy
6:51 PM 77.0 °F - 69.1 °F 76% 29.96 in 10.0 mi SE 9.2 mph - N/A   Mostly Cloudy
7:51 PM 75.0 °F - 69.1 °F 82% 29.95 in 10.0 mi SE 8.1 mph - N/A   Mostly Cloudy
8:51 PM 73.9 °F - 69.1 °F 85% 29.96 in 10.0 mi SSE 12.7 mph - N/A   Mostly Cloudy
9:51 PM 73.9 °F - 69.1 °F 85% 29.97 in 10.0 mi SSE 11.5 mph - N/A   Overcast
10:51 PM 73.9 °F - 69.1 °F 85% 29.96 in 10.0 mi SSE 9.2 mph - N/A   Overcast
11:51 PM 73.0 °F - 69.1 °F 87% 29.95 in 10.0 mi South 8.1 mph - N/A   Mostly Cloudy